Time,TemperatureF,DewpointF,PressureIn,WindDirection,WindDirectionDegrees,WindSpeedMPH,WindSpeedGustMPH,Humidity,HourlyPrecipIn,Conditions,Clouds,dailyrainin,SoftwareType,DateUTC
2013-12-02 00:00:00,20.6,8.9,28.93,NNE,32,16.0,16.0,60,0.00,CLR,,0.00,WeatherDisplay:10.37,2013-12-01 11:00:00,
2013-12-02 00:15:00,21.4,7.8,28.92,NNE,24,18.0,18.0,55,0.00,CLR,,0.00,WeatherDisplay:10.37,2013-12-01 11:15:00,
2013-12-02 00:30:00,21.5,7.8,28.92,NNE,27,17.0,18.0,55,0.00,CLR,,0.00,WeatherDisplay:10.37,2013-12-01 11:30:00,
2013-12-02 00:45:00,21.3,7.2,28.91,NNE,25,18.0,18.0,54,0.00,CLR,,0.00,WeatherDisplay:10.37,2013-12-01 11:45:00,
2013-12-02 01:00:00,21.2,6.7,28.91,NNE,26,18.0,18.0,53,0.00,CLR,,0.00,WeatherDisplay:10.37,2013-12-01 12:00:00,
2013-12-02 01:15:00,21.1,6.6,28.91,NNE,30,18.0,18.0,53,0.00,CLR,,0.00,WeatherDisplay:10.37,2013-12-01 12:15:00,
2013-12-02 01:30:00,21.1,6.2,28.91,NNE,29,20.0,20.0,52,0.00,CLR,,0.00,WeatherDisplay:10.37,2013-12-01 12:30:00,
2013-12-02 01:45:00,20.8,6.3,28.90,NNE,31,17.0,20.0,53,0.00,CLR,,0.00,WeatherDisplay:10.37,2013-12-01 12:45:00,
2013-12-02 02:00:00,20.5,6.5,28.90,NNE,30,17.0,17.0,54,0.00,CLR,,0.00,WeatherDisplay:10.37,2013-12-01 13:00:00,
2013-12-02 02:15:00,21.1,5.8,28.90,NNE,28,17.0,17.0,51,0.00,CLR,,0.00,WeatherDisplay:10.37,2013-12-01 13:15:00,
2013-12-02 02:30:00,21.3,5.1,28.89,NNE,31,16.0,17.0,49,0.00,CLR,,0.00,WeatherDisplay:10.37,2013-12-01 13:30:00,
2013-12-02 02:45:00,21.4,4.8,28.89,NNE,25,16.0,16.0,48,0.00,CLR,,0.00,WeatherDisplay:10.37,2013-12-01 13:45:00,
2013-12-02 03:00:00,22.0,4.3,28.89,NNE,22,16.0,16.0,46,0.00,CLR,,0.00,WeatherDisplay:10.37,2013-12-01 14:00:00,
2013-12-02 03:15:00,22.8,3.1,28.88,NNE,19,16.0,16.0,42,0.00,CLR,,0.00,WeatherDisplay:10.37,2013-12-01 14:15:00,
2013-12-02 03:30:00,23.1,3.4,28.88,NNE,27,14.0,16.0,42,0.00,CLR,,0.00,WeatherDisplay:10.37,2013-12-01 14:30:00,
2013-12-02 03:45:00,22.1,4.4,28.87,NNE,32,12.0,14.0,46,0.00,CLR,,0.00,WeatherDisplay:10.37,2013-12-01 14:45:00,
2013-12-02 04:00:00,22.4,3.7,28.87,NNE,27,12.0,12.0,44,0.00,CLR,,0.00,WeatherDisplay:10.37,2013-12-01 15:00:00,
2013-12-02 04:15:00,23.1,4.4,28.87,NNE,25,12.0,12.0,44,0.00,CLR,,0.00,WeatherDisplay:10.37,2013-12-01 15:15:00,
2013-12-02 04:30:00,23.6,4.4,28.87,NNE,22,12.0,12.0,43,0.00,CLR,,0.00,WeatherDisplay:10.37,2013-12-01 15:30:00,
2013-12-02 04:45:00,22.6,5.4,28.87,NNE,30,10.0,12.0,47,0.00,CLR,,0.00,WeatherDisplay:10.37,2013-12-01 15:45:00,
2013-12-02 05:00:00,22.0,4.9,28.87,NNE,25,12.0,12.0,47,0.00,CLR,,0.00,WeatherDisplay:10.37,2013-12-01 16:00:00,
2013-12-02 05:15:00,20.6,4.9,28.87,NNE,21,10.0,12.0,50,0.00,CLR,,0.00,WeatherDisplay:10.37,2013-12-01 16:15:00,
2013-12-02 05:30:00,22.0,3.8,28.87,NNE,33,8.0,10.0,45,0.00,CLR,,0.00,WeatherDisplay:10.37,2013-12-01 16:30:00,
2013-12-02 05:45:00,20.0,3.9,28.87,NE,42,7.0,8.0,49,0.00,CLR,,0.00,WeatherDisplay:10.37,2013-12-01 16:45:00,
2013-12-02 06:00:00,18.0,3.7,28.88,NE,46,8.0,8.0,53,0.00,CLR,,0.00,WeatherDisplay:10.37,2013-12-01 17:00:00,
2013-12-02 06:15:00,17.6,4.5,28.88,NE,36,8.0,8.0,56,0.00,CLR,,0.00,WeatherDisplay:10.37,2013-12-01 17:15:00,
2013-12-02 06:30:00,17.6,4.5,28.88,NNE,19,8.0,8.0,56,0.00,CLR,,0.00,WeatherDisplay:10.37,2013-12-01 17:30:00,
2013-12-02 06:45:00,20.5,5.7,28.88,NNE,25,6.0,8.0,52,0.00,CLR,,0.00,WeatherDisplay:10.37,2013-12-01 17:45:00,
2013-12-02 07:00:00,20.7,6.3,28.89,ENE,76,5.0,6.0,53,0.00,CLR,,0.00,WeatherDisplay:10.37,2013-12-01 18:00:00,
2013-12-02 07:15:00,21.2,7.9,28.89,ENE,78,3.0,5.0,56,0.00,CLR,,0.00,WeatherDisplay:10.37,2013-12-01 18:15:00,
2013-12-02 07:30:00,20.7,9.3,28.89,East,95,6.0,6.0,61,0.00,CLR,,0.00,WeatherDisplay:10.37,2013-12-01 18:30:00,
2013-12-02 07:45:00,18.1,10.3,28.89,South,174,15.0,15.0,71,0.00,CLR,,0.00,WeatherDisplay:10.37,2013-12-01 18:45:00,
2013-12-02 08:00:00,17.0,10.1,28.89,South,171,21.0,21.0,74,0.00,CLR,,0.00,WeatherDisplay:10.37,2013-12-01 19:00:00,
2013-12-02 08:15:00,15.4,10.1,28.88,South,170,21.0,21.0,79,0.00,CLR,,0.00,WeatherDisplay:10.37,2013-12-01 19:15:00,
2013-12-02 08:30:00,15.7,10.4,28.88,South,174,23.0,23.0,79,0.00,CLR,,0.00,WeatherDisplay:10.37,2013-12-01 19:30:00,
2013-12-02 08:45:00,15.8,10.1,28.88,South,183,20.0,23.0,78,0.00,CLR,,0.00,WeatherDisplay:10.37,2013-12-01 19:45:00,
2013-12-02 09:00:00,15.9,10.6,28.88,South,176,23.0,23.0,79,0.00,,,0.00,WeatherDisplay:10.37,2013-12-01 20:00:00,
2013-12-02 09:15:00,16.9,10.7,28.88,South,176,23.0,23.0,76,0.00,CLR,,0.00,WeatherDisplay:10.37,2013-12-01 20:15:00,
2013-12-02 09:30:00,17.0,10.7,28.88,South,175,22.0,23.0,76,0.00,CLR,,0.00,WeatherDisplay:10.37,2013-12-01 20:30:00,
2013-12-02 09:45:00,17.1,10.8,28.89,SSE,167,17.0,22.0,76,0.00,CLR,,0.00,WeatherDisplay:10.37,2013-12-01 20:45:00,
2013-12-02 10:00:00,17.2,11.2,28.89,SSE,167,17.0,17.0,77,0.00,CLR,,0.00,WeatherDisplay:10.37,2013-12-01 21:00:00,
2013-12-02 10:15:00,17.5,11.3,28.89,SSE,157,17.0,17.0,76,0.00,CLR,,0.00,WeatherDisplay:10.37,2013-12-01 21:15:00,
2013-12-02 10:30:00,18.1,10.9,28.89,SSE,152,13.0,17.0,73,0.00,CLR,,0.00,WeatherDisplay:10.37,2013-12-01 21:30:00,
2013-12-02 10:45:00,19.1,10.3,28.89,SE,144,10.0,13.0,68,0.00,CLR,,0.00,WeatherDisplay:10.37,2013-12-01 21:45:00,
2013-12-02 11:00:00,19.2,10.4,28.89,ESE,114,6.0,10.0,68,0.00,CLR,,0.00,WeatherDisplay:10.37,2013-12-01 22:00:00,
2013-12-02 11:15:00,19.7,11.8,28.89,ENE,59,6.0,6.0,71,0.00,CLR,,0.00,WeatherDisplay:10.37,2013-12-01 22:15:00,
2013-12-02 11:30:00,19.9,10.4,28.89,East,95,8.0,8.0,66,0.00,CLR,,0.00,WeatherDisplay:10.37,2013-12-01 22:30:00,
2013-12-02 11:45:00,21.3,7.7,28.89,SSE,150,6.0,8.0,55,0.00,CLR,,0.00,WeatherDisplay:10.37,2013-12-01 22:45:00,
2013-12-02 12:00:00,22.2,8.9,28.89,ESE,106,6.0,6.0,56,0.00,CLR,,0.00,WeatherDisplay:10.37,2013-12-01 23:00:00,
2013-12-02 12:15:00,21.6,10.2,28.89,ENE,78,9.0,9.0,61,0.00,CLR,,0.00,WeatherDisplay:10.37,2013-12-01 23:15:00,
2013-12-02 12:30:00,21.8,9.7,28.88,ENE,76,6.0,9.0,59,0.00,CLR,,0.00,WeatherDisplay:10.37,2013-12-01 23:30:00,
2013-12-02 12:45:00,22.1,10.0,28.86,ENE,60,16.0,16.0,59,0.00,CLR,,0.00,WeatherDisplay:10.37,2013-12-01 23:45:00,
2013-12-02 13:00:00,21.9,9.7,28.87,ENE,76,13.0,16.0,59,0.00,CLR,,0.00,WeatherDisplay:10.37,2013-12-02 00:00:00,
2013-12-02 13:15:00,21.2,10.6,28.87,ENE,65,8.0,13.0,63,0.00,CLR,,0.00,WeatherDisplay:10.37,2013-12-02 00:15:00,
2013-12-02 13:30:00,21.2,9.8,28.88,ESE,121,8.0,8.0,61,0.00,CLR,,0.00,WeatherDisplay:10.37,2013-12-02 00:30:00,
2013-12-02 13:45:00,21.4,11.8,28.87,SSE,158,13.0,13.0,66,0.00,CLR,,0.00,WeatherDisplay:10.37,2013-12-02 00:45:00,
2013-12-02 14:00:00,21.8,11.8,28.87,South,176,13.0,13.0,65,0.00,CLR,,0.00,WeatherDisplay:10.37,2013-12-02 01:00:00,
2013-12-02 14:15:00,21.8,11.5,28.88,SE,137,8.0,13.0,64,0.00,CLR,,0.00,WeatherDisplay:10.37,2013-12-02 01:15:00,
2013-12-02 14:30:00,21.9,10.9,28.87,ESE,105,7.0,8.0,62,0.00,CLR,,0.00,WeatherDisplay:10.37,2013-12-02 01:30:00,
2013-12-02 14:45:00,21.7,11.1,28.87,SE,128,8.0,8.0,63,0.00,CLR,,0.00,WeatherDisplay:10.37,2013-12-02 01:45:00,
2013-12-02 15:00:00,21.6,12.0,28.87,ESE,119,7.0,8.0,66,0.00,CLR,,0.00,WeatherDisplay:10.37,2013-12-02 02:00:00,
2013-12-02 15:15:00,21.4,11.1,28.88,SE,125,8.0,8.0,64,0.00,CLR,,0.00,WeatherDisplay:10.37,2013-12-02 02:15:00,
2013-12-02 15:30:00,21.3,11.0,28.88,ESE,119,7.0,8.0,64,0.00,CLR,,0.00,WeatherDisplay:10.37,2013-12-02 02:30:00,
2013-12-02 15:45:00,21.8,10.4,28.88,East,98,6.0,7.0,61,0.00,CLR,,0.00,WeatherDisplay:10.37,2013-12-02 02:45:00,
2013-12-02 16:00:00,22.3,10.5,28.87,ESE,115,6.0,6.0,60,0.00,CLR,,0.00,WeatherDisplay:10.37,2013-12-02 03:00:00,
2013-12-02 16:15:00,22.7,10.5,28.87,ESE,114,7.0,7.0,59,0.00,CLR,,0.00,WeatherDisplay:10.37,2013-12-02 03:15:00,
2013-12-02 16:30:00,22.7,10.1,28.87,ESE,102,5.0,7.0,58,0.00,CLR,,0.00,WeatherDisplay:10.37,2013-12-02 03:30:00,
2013-12-02 16:45:00,23.0,10.0,28.86,East,79,7.0,7.0,57,0.00,CLR,,0.00,WeatherDisplay:10.37,2013-12-02 03:45:00,
2013-12-02 17:00:00,23.3,9.5,28.86,East,82,7.0,7.0,55,0.00,CLR,,0.00,WeatherDisplay:10.37,2013-12-02 04:00:00,
2013-12-02 17:15:00,23.5,10.9,28.84,NE,42,12.0,12.0,58,0.00,CLR,,0.00,WeatherDisplay:10.37,2013-12-02 04:15:00,
2013-12-02 17:30:00,23.4,9.6,28.84,NE,43,12.0,12.0,55,0.00,CLR,,0.00,WeatherDisplay:10.37,2013-12-02 04:30:00,
2013-12-02 17:45:00,23.0,9.6,28.83,NNE,32,14.0,14.0,56,0.00,CLR,,0.00,WeatherDisplay:10.37,2013-12-02 04:45:00,
2013-12-02 18:00:00,23.5,8.9,28.83,NE,40,12.0,14.0,53,0.00,CLR,,0.00,WeatherDisplay:10.37,2013-12-02 05:00:00,
2013-12-02 18:15:00,23.9,7.5,28.83,NE,43,10.0,12.0,49,0.00,CLR,,0.00,WeatherDisplay:10.37,2013-12-02 05:15:00,
2013-12-02 18:30:00,23.9,7.1,28.82,NE,43,12.0,12.0,48,0.00,CLR,,0.00,WeatherDisplay:10.37,2013-12-02 05:30:00,
2013-12-02 18:45:00,23.8,6.0,28.83,NNE,31,7.0,12.0,46,0.00,CLR,,0.00,WeatherDisplay:10.37,2013-12-02 05:45:00,
2013-12-02 19:00:00,24.0,4.2,28.82,NNE,19,7.0,7.0,42,0.00,CLR,,0.00,WeatherDisplay:10.37,2013-12-02 06:00:00,
2013-12-02 19:15:00,24.5,3.0,28.82,NE,50,5.0,7.0,39,0.00,CLR,,0.00,WeatherDisplay:10.37,2013-12-02 06:15:00,
2013-12-02 19:30:00,25.0,3.5,28.82,SSE,164,10.0,10.0,39,0.00,CLR,,0.00,WeatherDisplay:10.37,2013-12-02 06:30:00,
2013-12-02 19:45:00,24.7,5.8,28.81,SE,140,9.0,10.0,44,0.00,CLR,,0.00,WeatherDisplay:10.37,2013-12-02 06:45:00,
2013-12-02 20:00:00,23.8,7.0,28.82,SSE,154,8.0,9.0,48,0.00,CLR,,0.00,WeatherDisplay:10.37,2013-12-02 07:00:00,
2013-12-02 20:15:00,23.2,10.9,28.81,SSW,203,24.0,24.0,59,0.00,,,0.00,WeatherDisplay:10.37,2013-12-02 07:15:00,
2013-12-02 20:30:00,23.5,11.2,28.81,SSW,207,26.0,26.0,59,0.00,,,0.00,WeatherDisplay:10.37,2013-12-02 07:30:00,
2013-12-02 20:45:00,22.5,11.4,28.82,SSW,196,18.0,26.0,62,0.00,CLR,,0.00,WeatherDisplay:10.37,2013-12-02 07:45:00,
2013-12-02 21:00:00,21.6,12.4,28.82,SSW,198,16.0,18.0,67,0.00,CLR,,0.00,WeatherDisplay:10.37,2013-12-02 08:00:00,
2013-12-02 21:15:00,21.2,10.9,28.81,SSW,203,21.0,21.0,64,0.00,CLR,,0.00,WeatherDisplay:10.37,2013-12-02 08:15:00,
2013-12-02 21:30:00,21.2,10.6,28.82,SSW,210,15.0,21.0,63,0.00,CLR,,0.00,WeatherDisplay:10.37,2013-12-02 08:30:00,
2013-12-02 21:45:00,19.3,10.2,28.82,South,177,12.0,15.0,67,0.00,CLR,,0.00,WeatherDisplay:10.37,2013-12-02 08:45:00,
2013-12-02 22:00:00,19.4,9.9,28.82,SSE,147,6.0,12.0,66,0.00,CLR,,0.00,WeatherDisplay:10.37,2013-12-02 09:00:00,
2013-12-02 22:15:00,19.8,8.9,28.82,NE,35,6.0,6.0,62,0.00,CLR,,0.00,WeatherDisplay:10.37,2013-12-02 09:15:00,
2013-12-02 22:30:00,20.2,8.1,28.83,NE,37,8.0,8.0,59,0.00,CLR,,0.00,WeatherDisplay:10.37,2013-12-02 09:30:00,
2013-12-02 22:45:00,21.2,7.5,28.83,ENE,74,5.0,8.0,55,0.00,CLR,,0.00,WeatherDisplay:10.37,2013-12-02 09:45:00,
2013-12-02 23:00:00,21.0,8.1,28.83,NE,35,6.0,6.0,57,0.00,CLR,,0.00,WeatherDisplay:10.37,2013-12-02 10:00:00,
2013-12-02 23:15:00,21.2,8.3,28.82,NNE,23,10.0,10.0,57,0.00,CLR,,0.00,WeatherDisplay:10.37,2013-12-02 10:15:00,
2013-12-02 23:30:00,21.3,8.1,28.81,NNE,22,9.0,10.0,56,0.00,CLR,,0.00,WeatherDisplay:10.37,2013-12-02 10:30:00,
2013-12-02 23:45:00,21.5,7.8,28.82,NNE,23,10.0,10.0,55,0.00,CLR,,0.00,WeatherDisplay:10.37,2013-12-02 10:45:00,